| time (UTC) | temp C | wind direction | speed KPH | gust KPH | rain 1hr cm | rain 24hr cm | rain mn cm | humidity % | barometer mb |
| 20260904193743 | 25 | 46 | 4.8 | 4.8 | 0.00 | 0.00 | 0.00 | 31 | 1028.9 |
| 20260904193239 | 25 | 230 | 0.0 | 1.6 | 0.00 | 0.00 | 0.00 | 31 | 1028.9 |
| 20260904192734 | 25 | 330 | 6.4 | 9.7 | 0.00 | 0.00 | 0.00 | 31 | 1028.6 |
| 20260904192229 | 25 | 332 | 4.8 | 9.7 | 0.00 | 0.00 | 0.00 | 31 | 1028.9 |
| 20260904191721 | 25 | 308 | 4.8 | 8.0 | 0.00 | 0.00 | 0.00 | 30 | 1028.8 |
| 20260904191216 | 25 | 148 | 1.6 | 3.2 | 0.00 | 0.00 | 0.00 | 31 | 1028.9 |
| 20260904190713 | 26 | 2 | 6.4 | 9.7 | 0.00 | 0.00 | 0.00 | 30 | 1028.8 |
| 20260904190208 | 26 | 220 | 6.4 | 9.7 | 0.00 | 0.00 | 0.00 | 29 | 1028.6 |
| 20260904185705 | 26 | 285 | 9.7 | 12.9 | 0.00 | 0.00 | 0.00 | 29 | 1028.9 |
| 20260904185159 | 25 | 29 | 4.8 | 9.7 | 0.00 | 0.00 | 0.00 | 30 | 1028.9 |
| 20260904184658 | 26 | 16 | 9.7 | 12.9 | 0.00 | 0.00 | 0.00 | 29 | 1028.8 |
| 20260904184154 | 26 | 266 | 6.4 | 9.7 | 0.00 | 0.00 | 0.00 | 29 | 1029.0 |
| 20260904183649 | 26 | 204 | 1.6 | 1.6 | 0.00 | 0.00 | 0.00 | 28 | 1029.1 |
| 20260904183149 | 25 | 211 | 1.6 | 1.6 | 0.00 | 0.00 | 0.00 | 29 | 1029.0 |
| 20260904182644 | 26 | 154 | 1.6 | 1.6 | 0.00 | 0.00 | 0.00 | 29 | 1029.3 |
| 20260904182139 | 26 | 83 | 4.8 | 4.8 | 0.00 | 0.00 | 0.00 | 29 | 1029.1 |
| 20260904181635 | 26 | 28 | 9.7 | 11.3 | 0.00 | 0.00 | 0.00 | 28 | 1029.5 |
| 20260904181130 | 26 | 222 | 3.2 | 4.8 | 0.00 | 0.00 | 0.00 | 29 | 1029.1 |
| 20260904180625 | 25 | 132 | 1.6 | 3.2 | 0.00 | 0.00 | 0.00 | 28 | 1029.3 |
| 20260904180120 | 25 | 312 | 8.0 | 11.3 | 0.00 | 0.00 | 0.00 | 29 | 1029.5 |
| 20260904175619 | 25 | 274 | 4.8 | 4.8 | 0.00 | 0.00 | 0.00 | 29 | 1029.3 |
| 20260904175118 | 25 | 67 | 8.0 | 9.7 | 0.00 | 0.00 | 0.00 | 29 | 1029.1 |
| 20260904174613 | 26 | 32 | 6.4 | 9.7 | 0.00 | 0.00 | 0.00 | 28 | 1029.4 |
| 20260904174109 | 25 | 63 | 1.6 | 3.2 | 0.00 | 0.00 | 0.00 | 30 | 1029.4 |
| 20260904173609 | 24 | 198 | 1.6 | 3.2 | 0.00 | 0.00 | 0.00 | 28 | 1029.3 |
| 20260904173105 | 25 | 339 | 4.8 | 11.3 | 0.00 | 0.00 | 0.00 | 29 | 1029.4 |
| 20260904172601 | 25 | 315 | 4.8 | 8.0 | 0.00 | 0.00 | 0.00 | 30 | 1029.5 |
| 20260904172100 | 25 | 359 | 3.2 | 3.2 | 0.00 | 0.00 | 0.00 | 30 | 1029.8 |
| 20260904171555 | 25 | 194 | 1.6 | 3.2 | 0.00 | 0.00 | 0.00 | 29 | 1029.5 |
| 20260904171051 | 24 | 199 | 1.6 | 3.2 | 0.00 | 0.00 | 0.00 | 29 | 1029.5 |
| 20260904170546 | 24 | 82 | 1.6 | 3.2 | 0.00 | 0.00 | 0.00 | 28 | 1029.5 |
| 20260904170042 | 25 | 204 | 0.0 | 0.0 | 0.00 | 0.00 | 0.00 | 28 | 1029.8 |
| 20260904165540 | 25 | 169 | 4.8 | 8.0 | 0.00 | 0.00 | 0.00 | 28 | 1029.7 |
| 20260904165040 | 24 | 170 | 4.8 | 8.0 | 0.00 | 0.00 | 0.00 | 29 | 1029.9 |
| 20260904151134 | 20 | 197 | 1.6 | 1.6 | 0.00 | 0.00 | 0.00 | 36 | 1029.4 |
| 20260904150630 | 20 | 197 | 1.6 | 1.6 | 0.00 | 0.00 | 0.00 | 36 | 1029.4 |
| 20260904150126 | 20 | 187 | 1.6 | 1.6 | 0.00 | 0.00 | 0.00 | 36 | 1029.3 |
| 20260904145624 | 19 | 191 | 0.0 | 0.0 | 0.00 | 0.00 | 0.00 | 39 | 1029.3 |
| 20260904145119 | 18 | 173 | 1.6 | 1.6 | 0.00 | 0.00 | 0.00 | 40 | 1029.3 |
| 20260904144615 | 17 | 209 | 0.0 | 0.0 | 0.00 | 0.00 | 0.00 | 43 | 1029.3 |
| 20260904144111 | 16 | 196 | 0.0 | 0.0 | 0.00 | 0.00 | 0.00 | 44 | 1029.3 |
| 20260904143607 | 16 | 207 | 0.0 | 0.0 | 0.00 | 0.00 | 0.00 | 50 | 1029.4 |
| 20260904143103 | 15 | 212 | 0.0 | 0.0 | 0.00 | 0.00 | 0.00 | 50 | 1029.7 |
| 20260904142600 | 15 | 217 | 0.0 | 0.0 | 0.00 | 0.00 | 0.00 | 52 | 1029.4 |
| 20260904142100 | 15 | 220 | 0.0 | 0.0 | 0.00 | 0.00 | 0.00 | 52 | 1029.1 |
| 20260904141555 | 15 | 192 | 1.6 | 1.6 | 0.00 | 0.00 | 0.00 | 48 | 1029.3 |
| 20260904141050 | 13 | 191 | 1.6 | 1.6 | 0.00 | 0.00 | 0.00 | 52 | 1029.3 |
| 20260904140546 | 13 | 207 | 0.0 | 0.0 | 0.00 | 0.00 | 0.00 | 53 | 1029.0 |
| 20260904140040 | 12 | 217 | 0.0 | 0.0 | 0.00 | 0.00 | 0.00 | 55 | 1029.4 |
| 20260904135539 | 12 | 209 | 0.0 | 0.0 | 0.00 | 0.00 | 0.00 | 53 | 1029.3 |
| 20260904135035 | 12 | 205 | 0.0 | 0.0 | 0.00 | 0.00 | 0.00 | 55 | 1029.0 |
| 20260904134531 | 11 | 208 | 0.0 | 0.0 | 0.00 | 0.00 | 0.00 | 57 | 1029.1 |
| 20260904134025 | 11 | 194 | 0.0 | 1.6 | 0.00 | 0.00 | 0.00 | 56 | 1029.1 |
| 20260904133520 | 10 | 168 | 1.6 | 1.6 | 0.00 | 0.00 | 0.00 | 59 | 1029.0 |
| 20260904133016 | 10 | 210 | 0.0 | 0.0 | 0.00 | 0.00 | 0.00 | 59 | 1029.1 |
| 20260904132516 | 9 | 184 | 1.6 | 1.6 | 0.00 | 0.00 | 0.00 | 59 | 1028.6 |
| 20260904132016 | 8 | 194 | 0.0 | 1.6 | 0.00 | 0.00 | 0.00 | 61 | 1028.8 |
| 20260904131516 | 8 | 235 | 0.0 | 0.0 | 0.00 | 0.00 | 0.00 | 62 | 1028.8 |
| 20260904131012 | 8 | 201 | 1.6 | 1.6 | 0.00 | 0.00 | 0.00 | 63 | 1028.8 |
| 20260904130511 | 8 | 195 | 1.6 | 1.6 | 0.00 | 0.00 | 0.00 | 60 | 1028.5 |
| 20260904130005 | 8 | 220 | 0.0 | 0.0 | 0.00 | 0.00 | 0.00 | 62 | 1028.5 |
| 20260904125502 | 8 | 227 | 0.0 | 0.0 | 0.00 | 0.00 | 0.00 | 61 | 1028.4 |
| 20260904124956 | 9 | 215 | 0.0 | 0.0 | 0.00 | 0.00 | 0.00 | 60 | 1028.3 |
| 20260904124452 | 8 | 199 | 1.6 | 1.6 | 0.00 | 0.00 | 0.00 | 61 | 1028.4 |
| 20260904123948 | 8 | 199 | 0.0 | 1.6 | 0.00 | 0.00 | 0.00 | 62 | 1028.4 |
| 20260904123442 | 8 | 187 | 1.6 | 1.6 | 0.00 | 0.00 | 0.00 | 62 | 1028.3 |
| 20260904122938 | 8 | 190 | 1.6 | 1.6 | 0.00 | 0.00 | 0.00 | 61 | 1028.3 |
| 20260904122437 | 8 | 206 | 0.0 | 1.6 | 0.00 | 0.00 | 0.00 | 61 | 1028.3 |
| 20260904121932 | 8 | 204 | 0.0 | 0.0 | 0.00 | 0.00 | 0.00 | 62 | 1028.1 |
| 20260904121428 | 8 | 211 | 0.0 | 0.0 | 0.00 | 0.00 | 0.00 | 62 | 1028.3 |
| 20260904120925 | 8 | 225 | 0.0 | 0.0 | 0.00 | 0.00 | 0.00 | 62 | 1028.1 |
| 20260904120420 | 8 | 197 | 0.0 | 0.0 | 0.00 | 0.00 | 0.00 | 63 | 1028.1 |
| 20260904115915 | 8 | 216 | 0.0 | 0.0 | 0.00 | 0.00 | 0.00 | 62 | 1028.1 |
| 20260904115410 | 8 | 216 | 0.0 | 0.0 | 0.00 | 0.00 | 0.00 | 63 | 1028.1 |
| 20260904114904 | 8 | 246 | 1.6 | 1.6 | 0.00 | 0.00 | 0.00 | 62 | 1027.9 |
| 20260904114359 | 8 | 215 | 0.0 | 0.0 | 0.00 | 0.00 | 0.00 | 63 | 1027.8 |
| 20260904113855 | 9 | 216 | 0.0 | 0.0 | 0.00 | 0.00 | 0.00 | 62 | 1028.0 |
| 20260904113354 | 9 | 197 | 1.6 | 1.6 | 0.00 | 0.00 | 0.00 | 61 | 1027.9 |
| 20260904112854 | 9 | 199 | 0.0 | 0.0 | 0.00 | 0.00 | 0.00 | 61 | 1028.0 |
| 20260904112350 | 9 | 215 | 0.0 | 0.0 | 0.00 | 0.00 | 0.00 | 60 | 1027.8 |
| 20260904111845 | 9 | 201 | 0.0 | 1.6 | 0.00 | 0.00 | 0.00 | 61 | 1027.9 |
| 20260904111341 | 9 | 204 | 0.0 | 0.0 | 0.00 | 0.00 | 0.00 | 62 | 1027.9 |
| 20260904110836 | 9 | 219 | 0.0 | 0.0 | 0.00 | 0.00 | 0.00 | 62 | 1027.6 |
| 20260904110335 | 9 | 219 | 0.0 | 0.0 | 0.00 | 0.00 | 0.00 | 61 | 1027.9 |
| 20260904105830 | 9 | 201 | 1.6 | 1.6 | 0.00 | 0.00 | 0.00 | 61 | 1027.8 |
| 20260904105325 | 10 | 219 | 0.0 | 0.0 | 0.00 | 0.00 | 0.00 | 59 | 1027.8 |
| 20260904104820 | 10 | 118 | 4.8 | 4.8 | 0.00 | 0.00 | 0.00 | 58 | 1027.5 |
| 20260904104316 | 9 | 156 | 0.0 | 1.6 | 0.00 | 0.00 | 0.00 | 60 | 1027.8 |
| 20260904103813 | 8 | 217 | 0.0 | 0.0 | 0.00 | 0.00 | 0.00 | 62 | 1027.6 |
| 20260904103312 | 9 | 205 | 0.0 | 0.0 | 0.00 | 0.00 | 0.00 | 61 | 1027.6 |
| 20260904102808 | 9 | 205 | 0.0 | 0.0 | 0.00 | 0.00 | 0.00 | 60 | 1027.5 |
| 20260904102306 | 9 | 216 | 0.0 | 0.0 | 0.00 | 0.00 | 0.00 | 61 | 1027.5 |
| 20260904101759 | 9 | 198 | 1.6 | 1.6 | 0.00 | 0.00 | 0.00 | 62 | 1027.1 |
| 20260904101255 | 9 | 201 | 1.6 | 1.6 | 0.00 | 0.00 | 0.00 | 61 | 1027.4 |
| 20260904100751 | 9 | 214 | 0.0 | 0.0 | 0.00 | 0.00 | 0.00 | 61 | 1027.5 |
| 20260904100247 | 10 | 219 | 0.0 | 0.0 | 0.00 | 0.00 | 0.00 | 60 | 1027.4 |
| 20260904095746 | 9 | 209 | 0.0 | 0.0 | 0.00 | 0.00 | 0.00 | 63 | 1027.3 |
| 20260904095241 | 9 | 169 | 1.6 | 1.6 | 0.00 | 0.00 | 0.00 | 62 | 1027.3 |
| 20260904094736 | 10 | 213 | 0.0 | 1.6 | 0.00 | 0.00 | 0.00 | 60 | 1027.1 |
| 20260904094231 | 10 | 202 | 1.6 | 1.6 | 0.00 | 0.00 | 0.00 | 57 | 1027.4 |
| 20260904093727 | 9 | 210 | 0.0 | 0.0 | 0.00 | 0.00 | 0.00 | 61 | 1027.1 |
| 20260904093227 | 10 | 219 | 0.0 | 0.0 | 0.00 | 0.00 | 0.00 | 62 | 1027.3 |
| 20260904092723 | 10 | 207 | 0.0 | 0.0 | 0.00 | 0.00 | 0.00 | 62 | 1027.3 |
| 20260904092219 | 10 | 191 | 1.6 | 1.6 | 0.00 | 0.00 | 0.00 | 61 | 1027.1 |
| 20260904091715 | 10 | 205 | 0.0 | 0.0 | 0.00 | 0.00 | 0.00 | 62 | 1027.1 |
| 20260904091209 | 10 | 220 | 0.0 | 0.0 | 0.00 | 0.00 | 0.00 | 63 | 1027.1 |
| 20260904090705 | 10 | 173 | 1.6 | 1.6 | 0.00 | 0.00 | 0.00 | 64 | 1027.4 |
| 20260904090201 | 10 | 224 | 0.0 | 0.0 | 0.00 | 0.00 | 0.00 | 64 | 1027.1 |
| 20260904085656 | 10 | 219 | 0.0 | 0.0 | 0.00 | 0.00 | 0.00 | 63 | 1026.9 |
| 20260904085156 | 10 | 208 | 0.0 | 0.0 | 0.00 | 0.00 | 0.00 | 62 | 1027.1 |
| 20260904084651 | 10 | 214 | 0.0 | 0.0 | 0.00 | 0.00 | 0.00 | 61 | 1027.0 |
| 20260904084147 | 10 | 165 | 3.2 | 3.2 | 0.00 | 0.00 | 0.00 | 62 | 1027.1 |
| 20260904083643 | 10 | 140 | 4.8 | 4.8 | 0.00 | 0.00 | 0.00 | 63 | 1027.0 |
| 20260904083138 | 10 | 221 | 0.0 | 0.0 | 0.00 | 0.00 | 0.00 | 63 | 1027.0 |
| 20260904060932 | 12 | 206 | 0.0 | 0.0 | 0.00 | 0.00 | 0.00 | 56 | 1027.8 |
| 20260904060428 | 12 | 206 | 0.0 | 0.0 | 0.00 | 0.00 | 0.00 | 56 | 1027.8 |
| 20260904055923 | 12 | 206 | 0.0 | 0.0 | 0.00 | 0.00 | 0.00 | 56 | 1027.8 |
| 20260904055419 | 12 | 193 | 0.0 | 1.6 | 0.00 | 0.00 | 0.00 | 57 | 1027.8 |
| 20260904054914 | 12 | 227 | 0.0 | 0.0 | 0.00 | 0.00 | 0.00 | 56 | 1027.9 |
| 20260904054410 | 12 | 219 | 0.0 | 0.0 | 0.00 | 0.00 | 0.00 | 56 | 1027.6 |
| 20260904053906 | 12 | 163 | 1.6 | 3.2 | 0.00 | 0.00 | 0.00 | 56 | 1027.4 |
| 20260904053404 | 13 | 224 | 1.6 | 1.6 | 0.00 | 0.00 | 0.00 | 55 | 1027.9 |
| 20260904052901 | 13 | 192 | 1.6 | 1.6 | 0.00 | 0.00 | 0.00 | 54 | 1027.5 |
| 20260904052357 | 13 | 196 | 1.6 | 1.6 | 0.00 | 0.00 | 0.00 | 54 | 1027.6 |
| 20260904051853 | 13 | 189 | 0.0 | 0.0 | 0.00 | 0.00 | 0.00 | 54 | 1027.8 |
| 20260904051348 | 13 | 213 | 0.0 | 0.0 | 0.00 | 0.00 | 0.00 | 54 | 1027.8 |
| 20260904050843 | 14 | 221 | 3.2 | 3.2 | 0.00 | 0.00 | 0.00 | 54 | 1027.5 |
| 20260904050340 | 13 | 180 | 3.2 | 3.2 | 0.00 | 0.00 | 0.00 | 53 | 1027.6 |
| 20260904045839 | 13 | 204 | 0.0 | 0.0 | 0.00 | 0.00 | 0.00 | 54 | 1027.5 |
| 20260904045335 | 13 | 201 | 0.0 | 0.0 | 0.00 | 0.00 | 0.00 | 55 | 1027.6 |
| 20260904044834 | 13 | 235 | 0.0 | 0.0 | 0.00 | 0.00 | 0.00 | 54 | 1027.8 |
| 20260904044331 | 13 | 201 | 0.0 | 0.0 | 0.00 | 0.00 | 0.00 | 54 | 1027.8 |
| 20260904043827 | 13 | 215 | 0.0 | 0.0 | 0.00 | 0.00 | 0.00 | 54 | 1027.8 |
| 20260904043323 | 13 | 218 | 0.0 | 0.0 | 0.00 | 0.00 | 0.00 | 53 | 1027.8 |
| 20260904042818 | 13 | 199 | 0.0 | 0.0 | 0.00 | 0.00 | 0.00 | 54 | 1028.0 |
| 20260904042314 | 13 | 213 | 0.0 | 0.0 | 0.00 | 0.00 | 0.00 | 54 | 1027.8 |
| 20260904041814 | 13 | 216 | 0.0 | 0.0 | 0.00 | 0.00 | 0.00 | 53 | 1027.9 |
| 20260904041310 | 13 | 194 | 0.0 | 1.6 | 0.00 | 0.00 | 0.00 | 53 | 1027.8 |
| 20260904040806 | 14 | 210 | 0.0 | 0.0 | 0.00 | 0.00 | 0.00 | 53 | 1028.0 |
| 20260904040301 | 14 | 199 | 0.0 | 0.0 | 0.00 | 0.00 | 0.00 | 53 | 1027.5 |
| 20260904035757 | 14 | 181 | 1.6 | 3.2 | 0.00 | 0.00 | 0.00 | 52 | 1028.0 |
| 20260904035253 | 15 | 201 | 0.0 | 0.0 | 0.00 | 0.00 | 0.00 | 52 | 1027.8 |
| 20260904034751 | 15 | 218 | 0.0 | 0.0 | 0.00 | 0.00 | 0.00 | 51 | 1028.1 |
| 20260904034247 | 15 | 180 | 1.6 | 3.2 | 0.00 | 0.00 | 0.00 | 51 | 1027.9 |
| 20260904033743 | 15 | 207 | 0.0 | 0.0 | 0.00 | 0.00 | 0.00 | 51 | 1027.5 |
| 20260904033240 | 15 | 210 | 0.0 | 0.0 | 0.00 | 0.00 | 0.00 | 50 | 1027.8 |
| 20260904032735 | 15 | 203 | 0.0 | 0.0 | 0.00 | 0.00 | 0.00 | 50 | 1027.9 |
| 20260904032235 | 15 | 210 | 0.0 | 0.0 | 0.00 | 0.00 | 0.00 | 50 | 1027.9 |
| 20260904031729 | 15 | 174 | 1.6 | 1.6 | 0.00 | 0.00 | 0.00 | 49 | 1027.5 |
| 20260904031225 | 15 | 178 | 1.6 | 1.6 | 0.00 | 0.00 | 0.00 | 49 | 1027.6 |
| 20260904030720 | 15 | 179 | 1.6 | 1.6 | 0.00 | 0.00 | 0.00 | 49 | 1027.5 |
| 20260904030215 | 16 | 210 | 0.0 | 0.0 | 0.00 | 0.00 | 0.00 | 49 | 1027.8 |
| 20260904025712 | 16 | 198 | 0.0 | 0.0 | 0.00 | 0.00 | 0.00 | 48 | 1027.9 |
| 20260904025207 | 16 | 184 | 1.6 | 1.6 | 0.00 | 0.00 | 0.00 | 47 | 1027.5 |
| 20260904024702 | 16 | 228 | 1.6 | 1.6 | 0.00 | 0.00 | 0.00 | 47 | 1027.4 |
| 20260904024157 | 16 | 182 | 1.6 | 1.6 | 0.00 | 0.00 | 0.00 | 47 | 1027.6 |
| 20260904023654 | 17 | 198 | 0.0 | 0.0 | 0.00 | 0.00 | 0.00 | 46 | 1027.3 |
| 20260904023149 | 17 | 214 | 0.0 | 0.0 | 0.00 | 0.00 | 0.00 | 47 | 1027.3 |
| 20260904022648 | 17 | 198 | 0.0 | 1.6 | 0.00 | 0.00 | 0.00 | 45 | 1027.1 |
| 20260904022145 | 17 | 198 | 0.0 | 1.6 | 0.00 | 0.00 | 0.00 | 45 | 1027.1 |
| 20260904021548 | 18 | 205 | 0.0 | 0.0 | 0.00 | 0.00 | 0.00 | 44 | 1027.0 |
| 20260904021043 | 18 | 205 | 0.0 | 0.0 | 0.00 | 0.00 | 0.00 | 44 | 1027.0 |
| 20260904020538 | 18 | 213 | 0.0 | 0.0 | 0.00 | 0.00 | 0.00 | 44 | 1026.6 |
| 20260904020033 | 18 | 185 | 0.0 | 0.0 | 0.00 | 0.00 | 0.00 | 45 | 1026.9 |
| 20260904015527 | 18 | 193 | 1.6 | 1.6 | 0.00 | 0.00 | 0.00 | 43 | 1026.9 |
| 20260904015026 | 19 | 223 | 0.0 | 0.0 | 0.00 | 0.00 | 0.00 | 43 | 1026.6 |
| 20260904014520 | 20 | 221 | 0.0 | 0.0 | 0.00 | 0.00 | 0.00 | 41 | 1026.6 |
| 20260904014016 | 20 | 224 | 1.6 | 1.6 | 0.00 | 0.00 | 0.00 | 39 | 1026.5 |
| 20260904013512 | 20 | 222 | 0.0 | 0.0 | 0.00 | 0.00 | 0.00 | 41 | 1027.0 |
| 20260904013009 | 21 | 223 | 0.0 | 0.0 | 0.00 | 0.00 | 0.00 | 37 | 1026.6 |
| 20260904012508 | 21 | 217 | 3.2 | 3.2 | 0.00 | 0.00 | 0.00 | 37 | 1026.6 |
| 20260904012002 | 21 | 224 | 3.2 | 3.2 | 0.00 | 0.00 | 0.00 | 36 | 1026.4 |
| 20260904011456 | 21 | 208 | 1.6 | 3.2 | 0.00 | 0.00 | 0.00 | 36 | 1026.5 |
| 20260904010952 | 22 | 220 | 1.6 | 1.6 | 0.00 | 0.00 | 0.00 | 36 | 1026.4 |
| 20260904010448 | 22 | 223 | 1.6 | 1.6 | 0.00 | 0.00 | 0.00 | 34 | 1026.2 |
| 20260904005943 | 23 | 222 | 0.0 | 1.6 | 0.00 | 0.00 | 0.00 | 34 | 1026.4 |
| 20260904005439 | 23 | 235 | 1.6 | 1.6 | 0.00 | 0.00 | 0.00 | 34 | 1026.6 |
| 20260903233629 | 26 | 336 | 6.4 | 11.3 | 0.00 | 0.00 | 0.00 | 29 | 1025.9 |
| 20260903233124 | 26 | 336 | 6.4 | 11.3 | 0.00 | 0.00 | 0.00 | 29 | 1025.9 |
| 20260903232619 | 26 | 234 | 9.7 | 12.9 | 0.00 | 0.00 | 0.00 | 29 | 1025.9 |
| 20260903232114 | 26 | 10 | 9.7 | 11.3 | 0.00 | 0.00 | 0.00 | 30 | 1026.1 |
| 20260903231608 | 26 | 218 | 3.2 | 3.2 | 0.00 | 0.00 | 0.00 | 29 | 1025.9 |
| 20260903231103 | 26 | 0 | 6.4 | 8.0 | 0.00 | 0.00 | 0.00 | 29 | 1025.9 |
| 20260903230559 | 26 | 50 | 6.4 | 8.0 | 0.00 | 0.00 | 0.00 | 29 | 1025.9 |
| 20260903230057 | 26 | 254 | 4.8 | 4.8 | 0.00 | 0.00 | 0.00 | 28 | 1025.9 |
| 20260903225554 | 26 | 229 | 3.2 | 3.2 | 0.00 | 0.00 | 0.00 | 28 | 1025.9 |
| 20260903225050 | 25 | 203 | 1.6 | 3.2 | 0.00 | 0.00 | 0.00 | 29 | 1025.9 |
| 20260903224546 | 26 | 260 | 3.2 | 3.2 | 0.00 | 0.00 | 0.00 | 29 | 1025.9 |
| 20260903224042 | 26 | 203 | 1.6 | 3.2 | 0.00 | 0.00 | 0.00 | 28 | 1025.9 |
| 20260903223537 | 27 | 221 | 1.6 | 3.2 | 0.00 | 0.00 | 0.00 | 28 | 1026.0 |
| 20260903223036 | 27 | 122 | 3.2 | 4.8 | 0.00 | 0.00 | 0.00 | 28 | 1025.9 |
| 20260903222531 | 27 | 9 | 3.2 | 3.2 | 0.00 | 0.00 | 0.00 | 29 | 1026.0 |
| 20260903222030 | 26 | 301 | 4.8 | 8.0 | 0.00 | 0.00 | 0.00 | 28 | 1025.9 |
| 20260903221525 | 26 | 332 | 9.7 | 12.9 | 0.00 | 0.00 | 0.00 | 28 | 1025.9 |
| 20260903221022 | 27 | 228 | 3.2 | 4.8 | 0.00 | 0.00 | 0.00 | 28 | 1026.0 |
| 20260903220522 | 26 | 244 | 1.6 | 3.2 | 0.00 | 0.00 | 0.00 | 29 | 1026.0 |
| 20260903220022 | 26 | 223 | 4.8 | 4.8 | 0.00 | 0.00 | 0.00 | 29 | 1026.0 |
| 20260903215516 | 26 | 137 | 3.2 | 4.8 | 0.00 | 0.00 | 0.00 | 30 | 1026.1 |
| 20260903215015 | 26 | 293 | 12.9 | 16.1 | 0.00 | 0.00 | 0.00 | 30 | 1026.1 |
| 20260903214510 | 27 | 147 | 6.4 | 8.0 | 0.00 | 0.00 | 0.00 | 29 | 1026.4 |
| 20260903214009 | 26 | 184 | 8.0 | 11.3 | 0.00 | 0.00 | 0.00 | 30 | 1026.0 |
| 20260903213505 | 26 | 354 | 8.0 | 12.9 | 0.00 | 0.00 | 0.00 | 30 | 1026.1 |
| 20260903213001 | 26 | 352 | 8.0 | 11.3 | 0.00 | 0.00 | 0.00 | 31 | 1026.1 |
| 20260903212456 | 25 | 202 | 3.2 | 3.2 | 0.00 | 0.00 | 0.00 | 30 | 1026.0 |
| 20260903211951 | 26 | 35 | 8.0 | 11.3 | 0.00 | 0.00 | 0.00 | 29 | 1026.0 |
| 20260903211446 | 26 | 227 | 4.8 | 8.0 | 0.00 | 0.00 | 0.00 | 30 | 1026.1 |
| 20260903210942 | 27 | 55 | 6.4 | 9.7 | 0.00 | 0.00 | 0.00 | 29 | 1026.0 |
| 20260903210442 | 27 | 216 | 4.8 | 4.8 | 0.00 | 0.00 | 0.00 | 28 | 1026.2 |
| 20260903205937 | 27 | 291 | 9.7 | 16.1 | 0.00 | 0.00 | 0.00 | 26 | 1026.4 |
| 20260903205432 | 27 | 281 | 3.2 | 3.2 | 0.00 | 0.00 | 0.00 | 25 | 1026.0 |
| 20260903204926 | 27 | 28 | 4.8 | 4.8 | 0.00 | 0.00 | 0.00 | 25 | 1026.2 |
| 20260903204423 | 27 | 332 | 4.8 | 4.8 | 0.00 | 0.00 | 0.00 | 25 | 1026.5 |
| 20260903203919 | 28 | 190 | 8.0 | 9.7 | 0.00 | 0.00 | 0.00 | 24 | 1026.2 |
| 20260903203414 | 27 | 250 | 6.4 | 8.0 | 0.00 | 0.00 | 0.00 | 25 | 1026.5 |
| 20260903202913 | 28 | 222 | 0.0 | 0.0 | 0.00 | 0.00 | 0.00 | 24 | 1026.9 |
| 20260903202410 | 27 | 231 | 8.0 | 11.3 | 0.00 | 0.00 | 0.00 | 25 | 1026.5 |
| 20260903201909 | 27 | 224 | 3.2 | 3.2 | 0.00 | 0.00 | 0.00 | 27 | 1026.8 |
| 20260903201404 | 27 | 218 | 1.6 | 1.6 | 0.00 | 0.00 | 0.00 | 25 | 1026.5 |
| 20260903200903 | 28 | 82 | 3.2 | 8.0 | 0.00 | 0.00 | 0.00 | 24 | 1026.8 |
| 20260903200353 | 26 | 214 | 3.2 | 3.2 | 0.00 | 0.00 | 0.00 | 27 | 1027.0 |
| 20260903195848 | 26 | 293 | 4.8 | 4.8 | 0.00 | 0.00 | 0.00 | 26 | 1026.8 |
| 20260903195344 | 26 | 185 | 6.4 | 8.0 | 0.00 | 0.00 | 0.00 | 27 | 1027.0 |
| 20260903194838 | 25 | 333 | 8.0 | 9.7 | 0.00 | 0.00 | 0.00 | 28 | 1027.1 |
| 20260903194334 | 25 | 333 | 8.0 | 9.7 | 0.00 | 0.00 | 0.00 | 28 | 1027.1 |